Regional Weather Roundup
Issued by NWS

Home | Current Version | Previous Version | Graphics & Text | Print | Product List | Glossary On
Versions: 1 2 3 4 5 6 7 8 9 10 11 12 13 14 15 16 17 18 19 20 21 22 23 24 25 26 27 28
000
ASUS45 KTFX 181110
RWRMT
MONTANA REGIONAL WEATHER ROUNDUP
NATIONAL WEATHER SERVICE GREAT FALLS MT
400 AM MST SAT FEB 18 2017

NOTE: "FAIR" INDICATES FEW OR NO CLOUDS BELOW 12000 FEET WITH NO
SIGNIFICANT WEATHER AND/OR OBSTRUCTIONS TO VISIBILITY.

MTZ001>007-043-181200-
WEST OF THE DIVIDE

CITY           SKY/WX    TMP DP  RH WIND       PRES   REMARKS
KALISPELL      PTCLDY    30  26  85 N3        29.51F
MISSOULA       CLOUDY    30  28  92 CALM      29.53F
BUTTE          CLOUDY    33  27  78 N3        29.52F
MULLAN PASS    CLOUDY    26  24  92 SE12G23   29.43F WCI  16
ANACONDA         N/A     34  28  80 SE5       29.51F
DEER LODGE       N/A     37  30  75 SE6       29.53S
EUREKA           N/A     19  18  93 CALM      29.56F
HAMILTON         N/A     32  28  86 CALM      29.50F
LIBBY            N/A     21  21 100 CALM      29.53F
PLAINS           N/A     25  19  77 CALM      29.57  VSB 0
RONAN            N/A     28  24  85 CALM      29.59F
$$

MTZ008-052>055-181200-
SOUTHWEST MONTANA

CITY           SKY/WX    TMP DP  RH WIND       PRES   REMARKS
BOZEMAN        CLOUDY    32  27  81 CALM      29.55S
DILLON         CLOUDY    33  25  72 N6        29.52F WCI  28
W YELLOWSTONE  CLOUDY    32  32 100 SW10G18   29.62S WCI  24
ENNIS          CLOUDY    41  30  65 S22G29    29.58S
$$

MTZ009-010-012-014-046-048-049-054-181200-
EAST SLOPES AND CENTRAL MONTANA

CITY           SKY/WX    TMP DP  RH WIND       PRES   REMARKS
CUT BANK       PTCLDY    26  23  88 NE6       29.55F WCI  19
GREAT FALLS    CLOUDY    32  26  78 W5        29.53F
MALMSTROM AFB  CLOUDY    32  27  81 E6        29.54F WCI  26
HELENA         CLOUDY    34  30  85 CALM      29.53S
AUGUSTA        CLOUDY    32  27  80 N7        29.53F WCI  26
BOWMANS CRNR   MOCLDY    33  24  70 NW7       29.51F WCI  27
CHOTEAU          N/A     32  28  86 W3        29.56F
CONRAD           N/A     29  29 100 CALM      29.61F
POWER          CLOUDY    35  26  71 E6        29.52F WCI  29
RAYNESFORD     CLOUDY    40  22  48 SE12      29.53F
ULM            CLOUDY    32  28  84 MISG      29.53F
$$

MTZ011-013-016-021-045-047-050-051-181200-
NORTH CENTRAL MONTANA

CITY           SKY/WX    TMP DP  RH WIND       PRES   REMARKS
HAVRE          CLOUDY    32  27  81 E9        29.58F WCI  24
LEWISTOWN      CLOUDY    38  24  57 E5        29.56F
N BAR RANCH    CLOUDY    34  23  64 SW7       29.61F WCI  28
CHINOOK          N/A     30  27  86 E6        29.61S WCI  24
DENTON         CLOUDY    35  25  66 CALM      29.53F
FORT BENTON      N/A     34  28  80 MISG      29.57F
GEYSER         CLOUDY    34  24  65 E5        29.54F
GRASS RANGE    CLOUDY    35  25  67 W5        29.55F
JUDITH GAP     MOCLDY    33  24  68 S16       29.56F WCI  23
ROY            MOCLDY    39  26  59 MISG      29.56F
STANFORD       CLOUDY    36  24  62 S7        29.54F WCI  30
WINIFRED       CLOUDY    40  27  59 E15       29.56F
$$

MTZ017>020-022>027-061-062-181200-
NORTHEAST MONTANA

CITY           SKY/WX    TMP DP  RH WIND       PRES   REMARKS
GLASGOW        CLOUDY    30  27  88 S10       29.64S WCI  21
JORDAN           N/A     28  25  88 CALM      29.60F
SIDNEY         PTCLDY    26  24  92 S6        29.69S WCI  19
WOLF POINT     PTCLDY    25  22  88 CALM      29.67S
PLENTYWOOD       N/A     28  27  93 W3        29.66S
POPLAR           N/A     25  23  93 N5        29.67F
$$

MTZ028>42-056>058-181200-
SOUTHCENTRAL AND SOUTHEAST MONTANA

CITY           SKY/WX    TMP DP  RH WIND       PRES   REMARKS
BAKER          CLOUDY    30  26  85 SE9       29.67F WCI  22
BILLINGS       CLOUDY    36  26  67 CALM      29.57F
LIVINGSTON     CLOUDY    33  25  72 NE3       29.56S
MILES CITY     CLOUDY    34  27  75 E5        29.61F
BIG TIMBER     CLOUDY    36  25  64 CALM      29.59F
EKALAKA          N/A     40  24  53 SE8       29.66F
FORSYTH          N/A     36  28  75 NE5       29.59S
HARLOWTON      MOCLDY    33  24  69 CALM      29.57F
LAUREL           N/A     35  19  52 CALM      29.60R
$$

REGIONAL REPORTS...DAKOTAS

CITY           SKY/WX    TMP DP  RH WIND       PRES   REMARKS
WILLISTON      CLEAR     26  25  96 CALM      29.67S
MINOT          CLEAR     34  29  82 SW8       29.66R WCI  27
DICKINSON      CLEAR     29  24  82 S5        29.67S
BEACH            N/A    N/A N/A N/A MISG        N/A
CROSBY           N/A     27  27 100 SW5       29.70R
TIOGA            N/A     28  28 100 W5        29.69R
WATFORD CITY     N/A     25  25 100 SW7       29.69R WCI  17
BISMARCK       CLEAR     33  28  81 W7        29.73R WCI  27
GRAND FORKS    CLEAR     35  29  78 W9        29.63S WCI  28
FARGO          CLEAR     35  32  88 W6        29.66R WCI  30
BUFFALO SD       N/A     32  26  78 E3        29.61F
RAPID CITY     CLOUDY    41  25  53 S12       29.70F
$$

REGIONAL REPORTS...WYOMING/IDAHO/WASHINGTON

CITY           SKY/WX    TMP DP  RH WIND       PRES   REMARKS
GILLETTE       CLOUDY    40  25  55 S17       29.59F
SHERIDAN       CLOUDY    33  26  75 VRB5      29.55F
BUFFALO WY     CLOUDY    41  30  65 S25       29.55F
CODY           CLOUDY    35  26  69 E3        29.59R
YELLOWSTONE LA   N/A     26  26 100 CALM      29.66S
IDAHO FALLS    LGT RAIN  37  34  89 S8        29.61S WCI  31
SALMON         CLOUDY    34  28  80 CALM      29.52S
BOISE          CLOUDY    45  39  79 SE13      29.47R
SPOKANE        CLOUDY    32  29  88 NE7       29.45F WCI  26
$$

REGIONAL REPORTS...ALBERTA

CITY           SKY/WX    TMP DP  RH WIND       PRES   REMARKS
EDMONTON       MOCLDY    25  23  93 CALM      29.61S
CALGARY        MOCLDY    25  19  80 VRB2      29.56F
LETHBRIDGE     CLEAR     23  21  93 VRB6      29.56S WCI  16
MEDICINE HAT   CLEAR     25  21  86 VRB2      29.61R
CARDSTON         N/A     25  21  86 S3          N/A
MILK RIVER       N/A     25  23  93 NW3         N/A
$$

REGIONAL REPORTS...SASKATCHEWAN

CITY           SKY/WX    TMP DP  RH WIND       PRES   REMARKS
SWIFT CURRENT  CLEAR     32  27  80 VRB2      29.63S
REGINA         PTCLDY    28  27  93 W9        29.66R WCI  20
SASKATOON      CLEAR     30  28  93 W9        29.64S WCI  22
CYPRESS HILLS    N/A     30  18  59 SE6         N/A  WCI  24
VAL MARIE        N/A     25  23  93 NE3         N/A
ROCKGLEN         N/A     32  28  86 NE5         N/A
ASSINIBOIA       N/A     23  21  93 S2          N/A
$$




USA.gov is the U.S. government's official web portal to all federal, state and local government web resources and services.